Regional Weather Roundup
Issued by NWS

Home | Current Version | Previous Version | Graphics & Text | Print | Product List | Glossary On
Versions: 1 2 3 4 5 6 7 8 9 10 11 12 13 14 15 16 17 18 19 20 21 22 23 24 25 26 27 28 29 30 31 32 33 34 35 36 37 38 39 40 41 42 43 44 45 46 47 48 49 50
000
ASUS45 KPSR 260600
RWRAZ

PRELIMINARY ARIZONA REGIONAL HOURLY WEATHER ROUNDUP
NATIONAL WEATHER SERVICE PHOENIX AZ
1100 PM MST TUE NOV 25 2014

NOTE: FAIR INDICATES FEW OR NO CLOUDS BELOW 12,000 FEET WITH NO
SIGNIFICANT WEATHER AND/OR OBSTRUCTIONS TO VISIBILITY.

AZZ001>003-036-260700-
NORTHWEST ARIZONA

CITY           SKY/WX    TMP DP  RH WIND       PRES   REMARKS
KINGMAN        CLEAR     39   8  27 E7        30.39S WCI  34
6HR MIN TEMP:  36; 6HR MAX TEMP:  59;

$$

AZZ004>008-015-016-018-260700-
NORTH CENTRAL ARIZONA

CITY           SKY/WX    TMP DP  RH WIND       PRES   REMARKS
GRAND CANYON   PTCLDY    21   5  50 CALM      30.45S
6HR MIN TEMP:  20; 6HR MAX TEMP:  46;

PRESCOTT       CLEAR     41   7  24 W8        30.40S
6HR MIN TEMP:  36; 6HR MAX TEMP:  57;

FLAGSTAFF      NOT AVBL
PAYSON         CLEAR     37   0  20 CALM      30.39R
PAGE           CLEAR     42  10  27 SE5       30.37S
6HR MIN TEMP:  39; 6HR MAX TEMP:  49;

$$

AZZ009>014-017-260700-
NORTHEAST ARIZONA

CITY           SKY/WX    TMP DP  RH WIND       PRES   REMARKS
WINSLOW        NOT AVBL
SAINT JOHNS    CLEAR     35   2  24 S7        30.38S WCI  29
6HR MIN TEMP:  31; 6HR MAX TEMP:  48;

SHOW LOW       CLEAR     32   0  25 E8        30.42S WCI  25
$$

AZZ023-260700-
GREATER PHOENIX AREA

CITY           SKY/WX    TMP DP  RH WIND       PRES   REMARKS
PHOENIX        CLEAR     53  18  25 SE3       30.29S
6HR MIN TEMP:  53; 6HR MAX TEMP:  67;

BUCKEYE          N/A     46   7  19 E6        30.31S
LUKE AFB       CLEAR     46  17  31 N6        30.30R
6HR MIN TEMP:  45; 6HR MAX TEMP:  65;

DEER VALLEY    CLEAR     49   6  17 NE3       30.30S
6HR MIN TEMP:  47; 6HR MAX TEMP:  63;

SCOTTSDALE     CLEAR     51  12  21 CALM      30.31F
6HR MIN TEMP:  50; 6HR MAX TEMP:  65;

MESA-GATEWAY   CLEAR     43   9  24 SE7       30.33S
$$

AZZ027-028-260700-
SOUTHWEST MARICOPA COUNTY AND PINAL COUNTY

CITY           SKY/WX    TMP DP  RH WIND       PRES   REMARKS
CASA GRANDE    CLEAR     43   1  17 CALM      30.32S
6HR MIN TEMP:  43; 6HR MAX TEMP:  64;

$$

AZZ503-504-507>509-260700-
SOUTHEAST ARIZONA

CITY           SKY/WX    TMP DP  RH WIND       PRES   REMARKS
TUCSON         CLEAR     46   3  17 CALM      30.34S
6HR MIN TEMP:  45; 6HR MAX TEMP:  63;

DAVIS-MONTHAN  CLEAR     42   4  21 SE7       30.32F
6HR MIN TEMP:  42; 6HR MAX TEMP:  59;

NOGALES        CLEAR     37   3  24 SE5       30.32F WCI  33
6HR MIN TEMP:  36; 6HR MAX TEMP:  60;

SIERRA VISTA   CLEAR     39   0  19 S3        30.34F
SAFFORD        CLEAR     37   4  25 S7        30.32R WCI  32
6HR MIN TEMP:  36; 6HR MAX TEMP:  56;

$$

AZZ020-021-025-026-031-260700-
SOUTHWEST ARIZONA

CITY           SKY/WX    TMP DP  RH WIND       PRES   REMARKS
YUMA           CLEAR     55  23  28 E3        30.30R
6HR MIN TEMP:  54; 6HR MAX TEMP:  73;

$$

CAZ031-033-041-043-047-048-061-260700-
SOUTHERN CALIFORNIA

CITY           SKY/WX    TMP DP  RH WIND       PRES   REMARKS
DOWNTOWN L.A.  CLEAR     59  44  57 CALM      30.28S
6HR MIN TEMP:  59; 6HR MAX TEMP:  74;

L.A. AIRPORT   CLEAR     65  50  58 CALM      30.28F
6HR MIN TEMP:  62; 6HR MAX TEMP:  69;

SAN DIEGO      CLEAR     62  28  27 CALM      30.29S
6HR MIN TEMP:  61; 6HR MAX TEMP:  76;

BURBANK        CLEAR     57  22  25 CALM      30.29S
6HR MIN TEMP:  57; 6HR MAX TEMP:  75;

ONTARIO        CLEAR     60  22  23 NE5       30.30S
6HR MIN TEMP:  58; 6HR MAX TEMP:  77;

RIVERSIDE      CLEAR     57  24  28 E5        30.30F
6HR MIN TEMP:  53; 6HR MAX TEMP:  79;

PALM SPRINGS   CLEAR     56  20  24 N8        30.33S
6HR MIN TEMP:  56; 6HR MAX TEMP:  72;

EL CENTRO NAS  CLEAR     50  18  28 W7        30.30F
6HR MIN TEMP:  48; 6HR MAX TEMP:  72;

IMPERIAL       CLEAR     50  25  37 W6        30.29F
6HR MIN TEMP:  50; 6HR MAX TEMP:  71;

BLYTHE         CLEAR     50  11  20 N5        30.31S
6HR MIN TEMP:  50; 6HR MAX TEMP:  69;

$$

NVZ020-UTZ003-260700-
SOUTHERN NEVADA-UTAH

CITY           SKY/WX    TMP DP  RH WIND       PRES   REMARKS
LAS VEGAS      NOT AVBL
SALT LAKE CITY MOCLDY    43  29  57 SE7       30.31S
6HR MIN TEMP:  43; 6HR MAX TEMP:  45; 6HR PCP: TRACE;

$$

NMZ009-TXZ055-260700-
NEW MEXICO-WEST TEXAS

CITY           SKY/WX    TMP DP  RH WIND       PRES   REMARKS
ALBUQUERQUE    PTCLDY    38   7  27 N5        30.31R WCI  34
6HR MIN TEMP:  37; 6HR MAX TEMP:  47;

EL PASO        PTCLDY    48   6  18 W3        30.27S
6HR MIN TEMP:  44; 6HR MAX TEMP:  52;

$$


........................KEY........................
SKY/WX - SKY CONDITION/WEATHER
TMP    - TEMPERATURE IN FAHRENHEIT
DP     - DEW POINT IN FAHRENHEIT
RH     - RELATIVE HUMIDITY IN PERCENT
WIND   - DIRECTION AND SPEED IN MILES PER HOUR (MPH)
VRB    - VARIABLE WIND DIRECTION
PRES   - MEAN SEA LEVEL PRESSURE IN INCHES OF MERCURY
         F - FALLING PRESSURE   R - RISING PRESSURE
         S - STEADY PRESSURE
VSB    - VISIBILITY IN MILES
HX     - HEAT INDEX IN FAHRENHEIT
WCI    - WIND CHILL INDEX IN FAHRENHEIT
TC     - TEMPERATURE IN CELSIUS WHICH IS ALSO KNOWN AS
         TEMPERATURE IN CENTIGRADE
AFB    - AIR FORCE BASE
         LUKE AFB IS LUKE AIR FORCE BASE
         DAVIS-MONTHAN IS DAVIS-MONTHAN AIR FORCE BASE
NAS    - NAVAL AIR STATION
         EL CENTRO NAS IS EL CENTRO NAVAL AIR STATION
N/A    - NOT AVAILABLE



USA.gov is the U.S. government's official web portal to all federal, state and local government web resources and services.